METEOR M2-3

导读 | 星芒AI

METEOR-M2-3 是俄罗斯一颗气象卫星,属于 METEOR-M 系列,于2019年发射。该卫星主要用于地球观测,提供气象、水文、环境监测等数据,支持天气预报和自然灾害预警。搭载多种遥感仪器,能够收集微波、红外和可见光图像,并具备数据中继功能。卫星运行在近地轨道,为俄罗斯及国际用户提供高精度的气象信息,是俄罗斯国家气象系统的重要组成部分。

基本信息
目录编号:
57166
目录名称:
METEOR M2-3
国际标识:
2023-091A
轨道中心:
EARTH
卫星名称:
METEOR M2-3
卫星全名:
--
卫星状态:
在轨 (已飞行900 天)
发射日期:
2023-06-27 UTC
国别 :
俄罗斯(独联体) (CIS)
星等 :
--
轨道信息
数据来源 国际轨道数据 AOE轨道数据
星历时间 2025-12-13T09:01:40+0800
8小时前
查看轨道信息
2025-12-13T06:00:00+0800
11小时前
查看轨道信息
半长轴 7189.906km 7189.928km
偏心率 0.0003889 0.000354
轨道倾角 98.638° 98.641°
近地点辐角 8.135° 1.859°
升交点赤经 40.577° 40.452°
平近点角 351.990° 71.883°
近地点 808.974km 809.247km
远地点 814.568km 814.339km
周期 101.122分钟 101.122分钟
每日圈数 14.240261 14.240197
详细信息
使用方式:
暂无
2D轨道图
3D轨道图
轨道高度分析图
轨道倾角分析图
轨道综合分析图
查看轨道综合分析图